Location: Appeville
(49.3218°N, 1.3427°W)
Time: 06:31:09
(UTC+00:00)

STARLINK 1023 - Pass Details

Date: 08 December 2019
Orbit: 345 x 354 km, 53.0° (Epoch: 27 January)

Event Time Altitude Azimuth Distance (km) Brightness Sun altitude
Exits shadow 05:28:01 42° 111° (ESE) 516 3.9 -21.6°
Drops below altitude 10° 05:30:03 10° 113° (ESE) 1,308 6.6 -21.3°
Sets 05:32:03 0° 114° (ESE) 2,145 8.1 -21.0°
